When you browse on this site, cookies collect data to enhance your experience and personalize the content and advertising you see.
Visit our Privacy Policy to learn more. By continuing to use the site, you agree to this use of cookies and data.
  • In Hungary
  • List of Countries
  • For 7 days
  • Water Temperature
  • Satellite Maps
  • Weather Map
  • News
  • Weather Widgets
  • user-avatar
    Login

    Hourly Weather Berezovka

    Today, 20 April, Saturday

    Time Temperature Precipitation Wind Pressure Humidity
    00:00 +7°C° 0 mm 3 mps 768 mmHg 55%
    01:00 +5°C° 0 mm 3 mps 768 mmHg 58%
    02:00 +4°C° 0 mm 3 mps 768 mmHg 60%
    03:00 +4°C° 0 mm 3 mps 768 mmHg 62%
    04:00 +4°C° 0 mm 3 mps 768 mmHg 63%
    05:00 +3°C° 0 mm 3 mps 768 mmHg 65%
    06:00 +5°C° 0 mm 4 mps 768 mmHg 59%
    07:00 +7°C° 0 mm 4 mps 768 mmHg 53%
    08:00 +9°C° 0 mm 5 mps 768 mmHg 45%
    09:00 +10°C° 0 mm 6 mps 768 mmHg 42%
    10:00 +11°C° 0 mm 6 mps 768 mmHg 38%
    11:00 +13°C° 0 mm 6 mps 768 mmHg 34%
    12:00 +13°C° 0 mm 6 mps 768 mmHg 33%
    13:00 +14°C° 0 mm 6 mps 768 mmHg 33%
    14:00 +15°C° 0 mm 5 mps 768 mmHg 33%
    15:00 +14°C° 0 mm 5 mps 768 mmHg 34%
    16:00 +14°C° 0 mm 5 mps 767 mmHg 35%
    17:00 +14°C° 0 mm 4 mps 767 mmHg 36%
    18:00 +13°C° 0 mm 4 mps 767 mmHg 40%
    19:00 +12°C° 0 mm 3 mps 767 mmHg 44%
    20:00 +12°C° 0 mm 2 mps 767 mmHg 47%
    21:00 +12°C° 0 mm 2 mps 767 mmHg 48%
    22:00 +10°C° 0 mm 2 mps 767 mmHg 49%
    23:00 +10°C° 0 mm 2 mps 767 mmHg 50%

    Tomorrow, 21 April, Sunday

    Time Temperature Precipitation Wind Pressure Humidity
    00:00 +10°C° 0 mm 2 mps 767 mmHg 51%
    01:00 +10°C° 0 mm 1 mps 767 mmHg 52%
    02:00 +10°C° 0 mm 1 mps 767 mmHg 54%
    03:00 +9°C° 0 mm 1 mps 767 mmHg 55%
    04:00 +8°C° 0 mm 1 mps 767 mmHg 57%
    05:00 +7°C° 0 mm 0 mps 767 mmHg 58%
    06:00 +9°C° 0 mm 1 mps 767 mmHg 54%
    07:00 +11°C° 0 mm 1 mps 767 mmHg 50%
    08:00 +12°C° 0 mm 1 mps 767 mmHg 46%
    09:00 +13°C° 0 mm 1 mps 767 mmHg 42%
    10:00 +14°C° 0 mm 2 mps 767 mmHg 38%
    11:00 +15°C° 0 mm 2 mps 767 mmHg 34%
    12:00 +15°C° 0 mm 2 mps 767 mmHg 35%
    13:00 +15°C° 0 mm 2 mps 766 mmHg 35%
    14:00 +15°C° 0 mm 2 mps 766 mmHg 36%
    15:00 +15°C° 0 mm 2 mps 766 mmHg 36%
    16:00 +15°C° 0 mm 2 mps 766 mmHg 37%
    17:00 +15°C° 0 mm 1 mps 766 mmHg 37%
    18:00 +14°C° 0 mm 1 mps 766 mmHg 40%
    19:00 +13°C° 0 mm 1 mps 766 mmHg 42%
    20:00 +12°C° 0 mm 1 mps 767 mmHg 45%
    21:00 +11°C° 0 mm 1 mps 767 mmHg 47%
    22:00 +11°C° 0 mm 1 mps 767 mmHg 48%
    23:00 +10°C° 0 mm 1 mps 767 mmHg 50%

    Day after tomorrow, 22 April, Monday

    Time Temperature Precipitation Wind Pressure Humidity
    00:00 +10°C° 0 mm 1 mps 767 mmHg 52%
    01:00 +9°C° 0 mm 1 mps 767 mmHg 55%
    02:00 +7°C° 0 mm 0 mps 767 mmHg 57%
    03:00 +8°C° 0 mm 1 mps 767 mmHg 58%
    04:00 +7°C° 0 mm 1 mps 767 mmHg 59%
    05:00 +6°C° 0 mm 2 mps 767 mmHg 60%
    06:00 +8°C° 0 mm 2 mps 768 mmHg 56%
    07:00 +10°C° 0 mm 3 mps 768 mmHg 52%
    08:00 +12°C° 0 mm 3 mps 768 mmHg 48%
    09:00 +13°C° 0 mm 4 mps 768 mmHg 44%
    10:00 +14°C° 0 mm 4 mps 768 mmHg 41%
    11:00 +14°C° 0 mm 5 mps 768 mmHg 37%
    12:00 +15°C° 0 mm 4 mps 768 mmHg 37%
    13:00 +15°C° 0 mm 4 mps 768 mmHg 36%
    14:00 +15°C° 0 mm 4 mps 768 mmHg 36%
    15:00 +16°C° 0 mm 3 mps 768 mmHg 38%
    16:00 +14°C° 0 mm 3 mps 768 mmHg 41%
    17:00 +14°C° 0 mm 3 mps 768 mmHg 43%
    18:00 +13°C° 0 mm 3 mps 768 mmHg 46%
    19:00 +12°C° 0 mm 3 mps 769 mmHg 49%
    20:00 +11°C° 0 mm 3 mps 769 mmHg 51%
    21:00 +10°C° 0 mm 3 mps 769 mmHg 53%
    22:00 +10°C° 0 mm 2 mps 769 mmHg 55%
    23:00 +9°C° 0 mm 2 mps 769 mmHg 56%

    23 April, Tuesday

    Time Temperature Precipitation Wind Pressure Humidity
    00:00 +9°C° 0 mm 2 mps 769 mmHg 57%
    01:00 +8°C° 0 mm 2 mps 769 mmHg 58%
    02:00 +7°C° 0 mm 2 mps 769 mmHg 60%
    03:00 +7°C° 0 mm 3 mps 770 mmHg 61%
    04:00 +7°C° 0 mm 3 mps 770 mmHg 63%
    05:00 +5°C° 0 mm 3 mps 770 mmHg 65%
    06:00 +8°C° 0 mm 3 mps 770 mmHg 61%
    07:00 +10°C° 0 mm 3 mps 771 mmHg 58%
    08:00 +12°C° 0 mm 4 mps 771 mmHg 54%
    09:00 +13°C° 0 mm 4 mps 771 mmHg 48%
    10:00 +15°C° 0 mm 4 mps 771 mmHg 42%
    11:00 +16°C° 0 mm 5 mps 771 mmHg 36%
    12:00 +16°C° 0 mm 5 mps 771 mmHg 36%
    13:00 +17°C° 0 mm 4 mps 770 mmHg 37%
    14:00 +17°C° 0 mm 4 mps 770 mmHg 37%
    15:00 +17°C° 0 mm 4 mps 770 mmHg 38%
    16:00 +17°C° 0 mm 4 mps 770 mmHg 39%
    17:00 +17°C° 0 mm 4 mps 770 mmHg 40%
    18:00 +14°C° 0 mm 3 mps 770 mmHg 44%
    19:00 +14°C° 0 mm 2 mps 771 mmHg 49%
    20:00 +12°C° 0 mm 2 mps 771 mmHg 54%
    21:00 +12°C° 0 mm 2 mps 771 mmHg 56%
    22:00 +10°C° 0 mm 2 mps 771 mmHg 58%
    23:00 +9°C° 0 mm 2 mps 771 mmHg 59%

    24 April, Wednesday

    Time Temperature Precipitation Wind Pressure Humidity
    00:00 +9°C° 0 mm 2 mps 771 mmHg 60%
    01:00 +9°C° 0 mm 1 mps 771 mmHg 60%
    02:00 +9°C° 0 mm 1 mps 771 mmHg 61%
    03:00 +8°C° 0 mm 2 mps 771 mmHg 60%
    04:00 +7°C° 0 mm 2 mps 771 mmHg 60%
    05:00 +7°C° 0 mm 2 mps 771 mmHg 59%
    06:00 +9°C° 0 mm 3 mps 772 mmHg 56%
    07:00 +11°C° 0 mm 3 mps 772 mmHg 52%
    08:00 +13°C° 0 mm 4 mps 772 mmHg 48%
    09:00 +14°C° 0 mm 4 mps 772 mmHg 44%
    10:00 +15°C° 0 mm 5 mps 772 mmHg 41%
    11:00 +17°C° 0 mm 5 mps 772 mmHg 37%
    12:00 +17°C° 0 mm 5 mps 772 mmHg 36%
    13:00 +19°C° 0 mm 5 mps 772 mmHg 35%
    14:00 +19°C° 0 mm 5 mps 771 mmHg 34%
    15:00 +19°C° 0 mm 4 mps 771 mmHg 36%
    16:00 +18°C° 0 mm 4 mps 771 mmHg 37%
    17:00 +18°C° 0 mm 4 mps 771 mmHg 38%
    18:00 +16°C° 0 mm 3 mps 771 mmHg 43%
    19:00 +13°C° 0 mm 3 mps 771 mmHg 47%
    20:00 +12°C° 0 mm 2 mps 771 mmHg 51%
    21:00 +12°C° 0 mm 1 mps 771 mmHg 52%
    22:00 +11°C° 0 mm 1 mps 772 mmHg 52%
    23:00 +11°C° 0 mm 1 mps 772 mmHg 52%

    25 April, Thursday

    Time Temperature Precipitation Wind Pressure Humidity
    00:00 +10°C° 0 mm 0 mps 772 mmHg 53%
    01:00 +9°C° 0 mm 0 mps 772 mmHg 54%
    02:00 +9°C° 0 mm 0 mps 772 mmHg 55%
    03:00 +9°C° 0 mm 0 mps 772 mmHg 55%
    04:00 +10°C° 0 mm 1 mps 772 mmHg 56%
    05:00 +9°C° 0 mm 1 mps 772 mmHg 57%
    06:00 +10°C° 0 mm 2 mps 772 mmHg 54%
    07:00 +13°C° 0 mm 2 mps 772 mmHg 51%
    08:00 +16°C° 0 mm 2 mps 772 mmHg 48%
    09:00 +17°C° 0 mm 3 mps 772 mmHg 45%
    10:00 +18°C° 0 mm 3 mps 772 mmHg 41%
    11:00 +20°C° 0 mm 3 mps 772 mmHg 38%
    12:00 +20°C° 0 mm 4 mps 771 mmHg 37%
    13:00 +21°C° 0 mm 4 mps 771 mmHg 35%
    14:00 +22°C° 0 mm 4 mps 771 mmHg 34%
    15:00 +21°C° 0 mm 4 mps 770 mmHg 35%
    16:00 +21°C° 0 mm 4 mps 770 mmHg 37%
    17:00 +21°C° 0 mm 4 mps 770 mmHg 38%
    18:00 +18°C° 0 mm 3 mps 770 mmHg 44%
    19:00 +16°C° 0 mm 3 mps 770 mmHg 49%
    20:00 +14°C° 0 mm 2 mps 769 mmHg 55%
    21:00 +14°C° 0 mm 2 mps 769 mmHg 56%
    22:00 +13°C° 0 mm 2 mps 769 mmHg 57%
    23:00 +13°C° 0 mm 1 mps 769 mmHg 58%
    Show more